Вернуться в каталог

STARLINK-2646

АктивенСвязьVLEO
NORAD 48642·PAYLOAD·🇺🇸 United States

Запущен May 26, 2021 с Cape Canaveral Space Force Station

Loading…

Ближайшие Пролёты (ближайшие 24 часа)

TLE

СвежийSource: CelesTrak SupGP

Эпоха: Sep 15, 2026, 00:56 UTC

1 48642C 21044E   26258.03937500  .00045631  00000+0  14671-2 0  2582
2 48642  53.1588 312.7463 0000809  81.3053 115.0448 15.31685233    10

Отслеживайте STARLINK-2646 в реальном времени с AllMySat

Download on the App Store